Home   Weather   Shiprock   Past weeks

Flag for USA Past Weather in Shiprock, New Mexico, USA — Yesterday and Last 2 Weeks

Now
66 °F

Overcast.


Feels Like: 66 °F
Forecast: 57 / 77 °F
Wind: No wind

Location: Four Corners Regional Airport

Current Time: Sep 28, 2016 at 9:35:19 PM

Latest Report: Sep 28, 2016 at 8:53 PM


Visibility: 10 mi

Pressure: 30.16 "Hg (25.33 "Hg at 1492m altitude)

Humidity: 50%

Dew Point: 47 °F

Location of ShiprockLocation

Past Weather in Shiprock — Graph

°F

Shiprock Temperature Yesterday

Maximum temperature yesterday: 77 °F (at 4:53 PM)
Minimum temperature yesterday: 46 °F (at 4:53 AM)
Average temperature yesterday: 61 °F

High & Low Weather Summary for the Past Weeks

 TemperatureHumidityPressure
High88 °F (Sep 22, 3:53 PM)97% (Sep 21, 6:53 AM)30.38 "Hg (Sep 21, 6:53 AM)
Low36 °F (Sep 24, 5:53 AM)2% (Sep 19, 3:53 PM)29.65 "Hg (Sep 22, 4:53 PM)
Average62 °F39%30.07 "Hg
* Reported Sep 13 7:53 PM — Sep 28 7:53 PM, Shiprock, Weather by CustomWeather, © 2016

Note: Actual official high and low records may vary slightly from our data, if they occured in-between our weather recording intervals... More about our weather records

Advertising

Shiprock Weather History for the Previous 24 Hours

Scroll right to see more
 ConditionsComfort  
Time TempWeatherWind HumidityBarometerVisibility
7:53 PM
Wed, Sep 28
70 °FLight rain. Partly cloudy.10 mph39%30.17 "Hg10 mi
6:53 PM74 °FSunny.10 mph26%30.12 "Hg10 mi
5:53 PM77 °FPassing clouds.5 mph22%30.09 "Hg10 mi
4:53 PM79 °FSunny.No wind20%30.09 "Hg10 mi
3:53 PM79 °FSunny.3 mph19%30.10 "Hg10 mi
2:53 PM78 °FSunny.6 mph21%30.10 "Hg10 mi
1:53 PM77 °FSunny.5 mph23%30.12 "Hg10 mi
12:53 PM74 °FSunny.7 mph26%30.14 "Hg10 mi
11:53 AM71 °FSunny.8 mph26%30.16 "Hg10 mi
10:53 AM66 °FSunny.9 mph32%30.18 "Hg10 mi
9:53 AM58 °FSunny.13 mph44%30.20 "Hg10 mi
8:53 AM53 °FSunny.10 mph51%30.19 "Hg10 mi
7:53 AM49 °FSunny.10 mph61%30.18 "Hg10 mi
6:53 AM46 °FClear.7 mph68%30.16 "Hg10 mi
5:53 AM49 °FClear.10 mph59%30.13 "Hg10 mi
4:53 AM48 °FClear.6 mphN/A30.13 "Hg10 mi
3:53 AM46 °FClear.7 mphN/A30.13 "Hg10 mi
2:53 AM50 °FClear.7 mphN/A30.12 "Hg10 mi
1:53 AM52 °FClear.6 mphN/A30.09 "Hg10 mi
12:53 AM54 °FClear.6 mphN/A30.09 "Hg10 mi
11:53 PM
Tue, Sep 27
55 °FClear.6 mphN/A30.09 "Hg10 mi
10:53 PM59 °FClear.7 mph38%30.08 "Hg10 mi
9:53 PM62 °FClear.7 mph35%30.07 "Hg10 mi
Weather by CustomWeather, © 2016

See weather overviewHow to use our weather pages